Location: Invercargill
(46.4000°S, 168.3500°E)
Time: 18:01:42
(UTC+12:00)

Envisat - Pass Details

Date: 14 May 2021
Orbit: 764 x 766 km, 98.1° (Epoch: 14 June)

Event Time Altitude Azimuth Distance (km) Brightness Sun altitude
Rises 18:10:44 0° 165° (SSE) 3,275 5.9 -8.1°
Reaches altitude 10° 18:13:05 10° 162° (SSE) 2,342 5.2 -8.5°
Maximum altitude 18:18:14 69° 78° (ENE) 833 3.0 -9.3°
Drops below altitude 10° 18:23:20 10° 354° (N) 2,312 5.8 -10.1°
Sets 18:25:38 0° 352° (N) 3,230 6.6 -10.5°
